TimeEDT,TemperatureF,Dew PointF,Humidity,Sea Level PressureIn,VisibilityMPH,Wind Direction,Wind SpeedMPH,Gust SpeedMPH,PrecipitationIn,Events,Conditions,WindDirDegrees,DateUTC
1:53 AM,48.9,45.0,86,30.10,10.0,Calm,Calm,-,N/A,,Clear,0,2013-09-15 05:53:00
2:53 AM,48.0,45.0,89,30.11,10.0,Calm,Calm,-,N/A,,Clear,0,2013-09-15 06:53:00
3:53 AM,46.0,44.1,93,30.11,10.0,Calm,Calm,-,N/A,,Clear,0,2013-09-15 07:53:00
4:53 AM,45.0,43.0,93,30.11,10.0,Calm,Calm,-,N/A,,Clear,0,2013-09-15 08:53:00
5:53 AM,46.0,44.1,93,30.11,10.0,Calm,Calm,-,N/A,,Clear,0,2013-09-15 09:53:00
6:53 AM,46.0,44.1,93,30.12,10.0,Calm,Calm,-,N/A,,Clear,0,2013-09-15 10:53:00
7:53 AM,46.0,45.0,96,30.14,10.0,Calm,Calm,-,N/A,,Clear,0,2013-09-15 11:53:00
8:53 AM,54.0,50.0,86,30.13,10.0,Calm,Calm,-,N/A,,Clear,0,2013-09-15 12:53:00
9:53 AM,61.0,52.0,72,30.14,10.0,SSE,3.5,-,N/A,,Clear,150,2013-09-15 13:53:00
10:53 AM,68.0,54.0,61,30.14,10.0,Variable,4.6,-,N/A,,Clear,0,2013-09-15 14:53:00
11:53 AM,72.0,55.0,55,30.13,10.0,West,6.9,-,N/A,,Clear,260,2013-09-15 15:53:00
12:53 PM,75.0,55.0,50,30.12,10.0,WSW,8.1,-,N/A,,Clear,240,2013-09-15 16:53:00
1:53 PM,77.0,55.9,48,30.11,10.0,SSW,6.9,-,N/A,,Partly Cloudy,200,2013-09-15 17:53:00
2:53 PM,79.0,57.0,47,30.09,10.0,SSW,12.7,19.6,N/A,,Partly Cloudy,210,2013-09-15 18:53:00
3:53 PM,80.1,57.0,45,30.07,10.0,SW,10.4,-,N/A,,Partly Cloudy,220,2013-09-15 19:53:00
4:53 PM,79.0,55.9,45,30.06,10.0,SW,13.8,-,N/A,,Clear,220,2013-09-15 20:53:00
5:53 PM,78.1,55.9,46,30.05,10.0,South,12.7,-,N/A,,Partly Cloudy,180,2013-09-15 21:53:00
6:53 PM,75.9,57.0,52,30.06,10.0,SW,9.2,-,N/A,,Clear,220,2013-09-15 22:53:00
7:53 PM,71.1,57.9,63,30.07,10.0,Calm,Calm,-,N/A,,Clear,0,2013-09-15 23:53:00
8:53 PM,66.0,57.9,75,30.06,10.0,SSW,4.6,-,N/A,,Clear,200,2013-09-16 00:53:00
9:53 PM,64.0,57.9,80,30.07,10.0,SW,3.5,-,N/A,,Clear,230,2013-09-16 01:53:00
10:53 PM,63.0,57.9,84,30.06,10.0,West,3.5,-,N/A,,Clear,280,2013-09-16 02:53:00
11:53 PM,61.0,57.0,87,30.07,10.0,Calm,Calm,-,N/A,,Partly Cloudy,0,2013-09-16 03:53:00